Regional Weather Roundup
Issued by NWS

Home | Current Version | Previous Version | Graphics & Text | Print | Product List | Glossary On
Versions: 1 2 3 4 5 6 7 8 9 10 11 12 13 14 15 16 17 18 19 20 21 22 23 24 25 26 27 28 29 30 31 32 33 34 35 36 37 38 39 40 41 42 43 44 45 46 47 48 49 50
000
ASUS43 KLOT 302210
RWRIL

ILLINOIS REGIONAL WEATHER ROUNDUP
NATIONAL WEATHER SERVICE CHICAGO/ROMEOVILLE IL
500 PM CDT WED JUL 30 2014

NOTE: "FAIR" INDICATES FEW OR NO CLOUDS BELOW 12,000 FEET WITH NO
SIGNIFICANT WEATHER AND/OR OBSTRUCTIONS TO VISIBILITY.

* THESE STATIONS ARE NOT UNDER NWS QUALITY CONTROL. THEY ALSO MAY NOT
  REPORT WEATHER SUCH AS PRECIPITATION OR FOG.

ILZ001-002-007-009-015-016-024-302300-
NORTHWEST ILLINOIS

CITY           SKY/WX    TMP DP  RH WIND       PRES   REMARKS
MOLINE         MOSUNNY   81  57  43 W12       30.03F HX  81
STERLING*      PTSUNNY   81  61  50 W10       30.03F HX  81
SAVANNA*       MOSUNNY   81  54  39 W10       30.03S HX  80
$$

ILZ003-004-008-010-011-017-018-302300-
NORTH CENTRAL ILLINOIS

CITY           SKY/WX    TMP DP  RH WIND       PRES   REMARKS
ROCKFORD       MOSUNNY   77  55  46 NW9       30.03F
FREEPORT*      MOSUNNY   78  55  44 NW10      30.05F
ROCHELLE*      SUNNY     78  55  44 W12       30.03F
DE KALB*       MOSUNNY   75  56  51 W14       30.04S
PERU*          SUNNY     78  58  49 NW9       30.04S HX  80
$$

ILZ005-006-012>014-019>023-302300-
NORTHEAST ILLINOIS

CITY           SKY/WX    TMP DP  RH WIND       PRES   REMARKS
CHICAGO-OHARE  MOSUNNY   74  57  55 NE9       30.01F
CHICAGO-MIDWAY PTSUNNY   72  60  66 E8        30.02S
AURORA         MOSUNNY   78  57  48 W12       30.02F
LANSING*       MOSUNNY   70  58  66 NE10      30.02R
JOLIET*        SUNNY     78  53  40 NW10      30.02S
WAUKEGAN       SUNNY     68  57  68 NE6       30.02F
DUPAGE AIRPORT PTSUNNY   76  56  49 W7        30.01F
KANKAKEE*      PTSUNNY   77  61  57 W10G16    30.03S
WHEELING       SUNNY     72  58  61 E7        30.03F
MORRIS*        SUNNY     79  60  53 W9        30.02F HX  80
ROMEOVILLE*    MOSUNNY   77  55  46 NW9       30.01F
NORTHERLY ISL    N/A     67  60  78 NE6         N/A
$$

LMZ740>746-302300-
SOUTHERN LAKE MICHIGAN

STATION/POSITION SKY/WX   TEMP    WIND        PRES    VSBY  WAVE
                          AIR SEA DIR/SP/G                  HT/PER
                          (F)     (DEG/KT/KT) (MB)    (MI)  (FT/S)
SOUTHERN BUOY              60 62  340/  4/  6 1016.9F         1
WAUKEGAN HARBOR            63      60/  6/  8   N/A
HARRISON CRIB              63      40/  7/  9   N/A
BURNHAM HARBOR             66      30/  5/ 11   N/A
CALUMET HARBOR             66      10/  5/ 10 1015.7S
BURNS HARBOR               67      40/ 11/ 14 1017.3S
MICHIGAN CITY              64      10/ 11/ 13   N/A
MICHIGAN CITY 6N           65 69   30/ 10/ 12   N/A           1/ 2
ST. JOSEPH                 63 69   10/  8/ 10   N/A           1/ 3
$$

ILZ025>027-034>036-040-047-049-050-058-095>099-302300-
WEST-CENTRAL ILLINOIS

CITY           SKY/WX    TMP DP  RH WIND       PRES   REMARKS
QUINCY         MOSUNNY   79  56  45 NW7       30.06F HX  80
GALESBURG*     SUNNY     82  61  49 NW7       30.05F HX  82
MACOMB*        MOSUNNY   78  59  52 W7        30.08S
JACKSONVILLE*  MOSUNNY   81  59  47 N5        30.07S HX  82
PITTSFIELD*    MOSUNNY   80  56  43 CALM      30.07F HX  80
$$

ILZ028>032-037-038-041>044-048-051>054-059>061-302300-
CENTRAL ILLINOIS

CITY           SKY/WX    TMP DP  RH WIND       PRES   REMARKS
PONTIAC        MOSUNNY   81  61  50 NW12      30.03S HX  81
DECATUR        PTSUNNY   81  57  43 NW10      30.05F HX  81
PEORIA         SUNNY     82  54  37 W10       30.04F HX  81
LACON*         MOSUNNY   80  57  44 NW7       30.02F HX  80
LINCOLN*       SUNNY     82  56  41 NW6       30.02S HX  81
SPRINGFIELD    SUNNY     82  60  47 NW8       30.05F HX  82
TAYLORVILLE    MOSUNNY   77  59  53 NW6       30.05S
$$

ILZ033-039-045-046-055>057-062-063-302300-
EAST-CENTRAL ILLINOIS

CITY           SKY/WX    TMP DP  RH WIND       PRES   REMARKS
CHAMPAIGN      SUNNY     79  61  53 W12       30.05S HX  80
DANVILLE*      MOSUNNY   75  62  62 W8        30.00F
RANTOUL*       SUNNY     80  59  48 W9        30.04F HX  80
MATTOON        SUNNY     79  57  46 W12       30.04F HX  80
PARIS*         PTSUNNY   76  62  61 W5        30.04F
$$

ILZ079-100>102-302300-
SOUTHWEST ILLINOIS

CITY           SKY/WX    TMP DP  RH WIND       PRES   REMARKS
ALTON          MOSUNNY   81  57  44 NW7       30.06S HX  81
BELLEVILLE     MOSUNNY   81  57  44 S1        30.05S HX  81
CAHOKIA*       PTSUNNY   83  53  35 SE5       30.04F HX  82
SPARTA*        CLOUDY    77  61  57 SW10      30.07S
$$

ILZ064>066-069>071-074>076-080>082-084>086-088>090-092>094-302300-
SOUTH-CENTRAL ILLINOIS

CITY           SKY/WX    TMP DP  RH WIND       PRES   REMARKS
CARBONDALE     PTSUNNY   77  61  57 SW13      30.07F
CAIRO*         CLOUDY    78  62  58 CALM      30.08F HX  80
EFFINGHAM*     MOSUNNY   82  49  32 SW6       30.05S HX  80
MARION         PTSUNNY   77  61  57 SW12      30.08F
MT. VERNON     PTSUNNY   81  61  50 SW9       30.07S HX  81
CENTRALIA*     PTSUNNY   89  51  27 W5        30.05S HX  87
SALEM*         PTSUNNY  N/A N/A N/A W5        30.06S
METROPOLIS*    CLOUDY    78  51  39 SW3       30.08F HAZE
$$

ILZ067-068-072-073-078-083-087-091-302300-
SOUTHEAST ILLINOIS

CITY           SKY/WX    TMP DP  RH WIND       PRES   REMARKS
LAWRENCEVILLE  SUNNY     81  59  47 W9        30.05F HX  81
FLORA*         SUNNY     81  50  34 W3        30.05S HX  80
FAIRFIELD*     MOSUNNY   81  61  50 SW6       30.05F HX  81
HARRISBURG*    PTSUNNY   78  60  53 SW8       30.08F
ROBINSON*      MOSUNNY   81  61  50 W8        30.05F HX  81
CARMI*         PTSUNNY   81  66  61 SW12      30.05F HX  83
$$

ABBREVIATIONS USED IN REMARKS
   TC - TEMPERATURE IN CELSIUS
  WCI - WIND CHILL INDEX
   HX - HEAT INDEX
  VSB - VISIBILITY
$$



USA.gov is the U.S. government's official web portal to all federal, state and local government web resources and services.